When you browse on this site, cookies collect data to enhance your experience and personalize the content and advertising you see.
Visit our Privacy Policy to learn more. By continuing to use the site, you agree to this use of cookies and data.
  • en France
  • Liste des pays
  • À 7 jours
  • Température de l'eau
  • Carte satellitaire
  • Carte météo
  • Widgets météo
  • user-avatar
    Se connecter

    Météo par heure à Fier

    Ce jour, 20 Novembre, Mardi

    Heure Température Précipitation Vent Pression Humidité
    00:00 +13°C° 0.5 mm 8 m/s 757 mmHg 78%
    01:00 +12°C° 0 mm 7 m/s 757 mmHg 81%
    02:00 +14°C° 1.5 mm 7 m/s 757 mmHg 82%
    03:00 +13°C° 1.5 mm 8 m/s 757 mmHg 83%
    04:00 +13°C° 1.5 mm 8 m/s 757 mmHg 85%
    05:00 +13°C° 1.8 mm 8 m/s 757 mmHg 85%
    06:00 +13°C° 1.8 mm 8 m/s 757 mmHg 85%
    07:00 +15°C° 0 mm 9 m/s 756 mmHg 86%
    08:00 +15°C° 1.1 mm 9 m/s 757 mmHg 84%
    09:00 +16°C° 1.1 mm 9 m/s 757 mmHg 82%
    10:00 +16°C° 1.1 mm 9 m/s 757 mmHg 81%
    11:00 +16°C° 1.2 mm 9 m/s 757 mmHg 81%
    12:00 +16°C° 1.2 mm 9 m/s 756 mmHg 81%
    13:00 +16°C° 1.2 mm 9 m/s 756 mmHg 81%
    14:00 +16°C° 0.9 mm 9 m/s 756 mmHg 82%
    15:00 +16°C° 0.9 mm 9 m/s 756 mmHg 82%
    16:00 +16°C° 0.9 mm 9 m/s 756 mmHg 83%
    17:00 +16°C° 0.2 mm 8 m/s 756 mmHg 83%
    18:00 +15°C° 0.2 mm 8 m/s 756 mmHg 84%
    19:00 +15°C° 0.2 mm 8 m/s 755 mmHg 84%
    20:00 +15°C° 1 mm 8 m/s 756 mmHg 84%
    21:00 +15°C° 1 mm 8 m/s 756 mmHg 84%
    22:00 +15°C° 1 mm 8 m/s 756 mmHg 84%
    23:00 +15°C° 1.8 mm 8 m/s 756 mmHg 86%

    Demain, 21 Novembre, Mercredi

    Heure Température Précipitation Vent Pression Humidité
    00:00 +15°C° 1.8 mm 7 m/s 755 mmHg 88%
    01:00 +14°C° 1.8 mm 6 m/s 755 mmHg 90%
    02:00 +14°C° 1 mm 6 m/s 755 mmHg 89%
    03:00 +14°C° 1 mm 5 m/s 755 mmHg 89%
    04:00 +14°C° 1 mm 4 m/s 755 mmHg 88%
    05:00 +14°C° 0.8 mm 4 m/s 755 mmHg 88%
    06:00 +14°C° 0.8 mm 3 m/s 756 mmHg 89%
    07:00 +14°C° 0.8 mm 3 m/s 756 mmHg 89%
    08:00 +16°C° 0.5 mm 3 m/s 756 mmHg 84%
    09:00 +17°C° 0.5 mm 4 m/s 757 mmHg 79%
    10:00 +18°C° 0.5 mm 4 m/s 757 mmHg 75%
    11:00 +18°C° 0.6 mm 4 m/s 757 mmHg 75%
    12:00 +18°C° 0.6 mm 4 m/s 757 mmHg 75%
    13:00 +17°C° 0.6 mm 5 m/s 757 mmHg 75%
    14:00 +18°C° 0.3 mm 4 m/s 758 mmHg 78%
    15:00 +17°C° 0.3 mm 4 m/s 758 mmHg 82%
    16:00 +16°C° 0.3 mm 3 m/s 758 mmHg 86%
    17:00 +14°C° 0.4 mm 3 m/s 759 mmHg 87%
    18:00 +15°C° 0.4 mm 2 m/s 759 mmHg 89%
    19:00 +14°C° 0.4 mm 2 m/s 760 mmHg 90%
    20:00 +14°C° 0.4 mm 2 m/s 760 mmHg 89%
    21:00 +14°C° 0.4 mm 2 m/s 760 mmHg 88%
    22:00 +15°C° 0.4 mm 2 m/s 761 mmHg 87%
    23:00 +14°C° 0.1 mm 2 m/s 761 mmHg 89%

    Après-demain, 22 Novembre, Jeudi

    Heure Température Précipitation Vent Pression Humidité
    00:00 +14°C° 0.1 mm 2 m/s 761 mmHg 90%
    01:00 +14°C° 0.1 mm 2 m/s 761 mmHg 91%
    02:00 +14°C° 0 mm 2 m/s 761 mmHg 91%
    03:00 +14°C° 0 mm 2 m/s 761 mmHg 91%
    04:00 +13°C° 0 mm 2 m/s 761 mmHg 91%
    05:00 +13°C° 0.1 mm 2 m/s 761 mmHg 89%
    06:00 +13°C° 0.1 mm 2 m/s 761 mmHg 88%
    07:00 +13°C° 0.1 mm 2 m/s 761 mmHg 87%
    08:00 +15°C° 0.2 mm 2 m/s 762 mmHg 81%
    09:00 +16°C° 0.2 mm 2 m/s 762 mmHg 74%
    10:00 +18°C° 0.2 mm 2 m/s 762 mmHg 68%
    11:00 +18°C° 0.3 mm 2 m/s 762 mmHg 67%
    12:00 +18°C° 0.3 mm 2 m/s 762 mmHg 66%
    13:00 +19°C° 0.3 mm 3 m/s 762 mmHg 65%
    14:00 +18°C° 0.3 mm 3 m/s 762 mmHg 71%
    15:00 +17°C° 0.3 mm 3 m/s 762 mmHg 76%
    16:00 +16°C° 0.3 mm 2 m/s 762 mmHg 82%
    17:00 +15°C° 0.1 mm 2 m/s 762 mmHg 85%
    18:00 +15°C° 0.1 mm 2 m/s 763 mmHg 88%
    19:00 +14°C° 0.1 mm 1 m/s 763 mmHg 91%
    20:00 +14°C° 0.1 mm 2 m/s 763 mmHg 90%
    21:00 +14°C° 0.1 mm 2 m/s 764 mmHg 89%
    22:00 +13°C° 0.1 mm 2 m/s 764 mmHg 88%
    23:00 +13°C° 0 mm 2 m/s 764 mmHg 87%

    23 Novembre, Vendredi

    Heure Température Précipitation Vent Pression Humidité
    00:00 +13°C° 0 mm 2 m/s 764 mmHg 87%
    01:00 +13°C° 0 mm 2 m/s 764 mmHg 86%
    02:00 +13°C° 0.1 mm 2 m/s 764 mmHg 85%
    03:00 +13°C° 0.1 mm 2 m/s 765 mmHg 85%
    04:00 +12°C° 0.1 mm 2 m/s 765 mmHg 84%
    05:00 +12°C° 0 mm 2 m/s 765 mmHg 84%
    06:00 +12°C° 0 mm 2 m/s 765 mmHg 83%
    07:00 +12°C° 0 mm 2 m/s 766 mmHg 83%
    08:00 +14°C° 0 mm 2 m/s 766 mmHg 76%
    09:00 +16°C° 0 mm 2 m/s 766 mmHg 69%
    10:00 +19°C° 0 mm 1 m/s 766 mmHg 63%
    11:00 +18°C° 0 mm 2 m/s 766 mmHg 60%
    12:00 +19°C° 0 mm 2 m/s 766 mmHg 58%
    13:00 +19°C° 0 mm 2 m/s 766 mmHg 56%
    14:00 +18°C° 0 mm 2 m/s 766 mmHg 60%
    15:00 +17°C° 0 mm 2 m/s 766 mmHg 64%
    16:00 +16°C° 0 mm 2 m/s 766 mmHg 68%
    17:00 +16°C° 0 mm 2 m/s 766 mmHg 70%
    18:00 +15°C° 0 mm 2 m/s 766 mmHg 72%
    19:00 +14°C° 0 mm 2 m/s 766 mmHg 74%
    20:00 +14°C° 0 mm 2 m/s 766 mmHg 75%
    21:00 +14°C° 0 mm 2 m/s 767 mmHg 75%
    22:00 +13°C° 0 mm 2 m/s 767 mmHg 75%
    23:00 +13°C° 0 mm 2 m/s 767 mmHg 75%

    24 Novembre, Samedi

    Heure Température Précipitation Vent Pression Humidité
    00:00 +13°C° 0 mm 2 m/s 767 mmHg 75%
    01:00 +12°C° 0 mm 2 m/s 766 mmHg 75%
    02:00 +12°C° 0 mm 2 m/s 766 mmHg 75%
    03:00 +12°C° 0 mm 2 m/s 766 mmHg 75%
    04:00 +11°C° 0 mm 3 m/s 766 mmHg 75%
    05:00 +11°C° 0 mm 3 m/s 766 mmHg 75%
    06:00 +11°C° 0 mm 3 m/s 766 mmHg 74%
    07:00 +11°C° 0 mm 4 m/s 766 mmHg 74%
    08:00 +12°C° 0 mm 4 m/s 766 mmHg 69%
    09:00 +14°C° 0 mm 4 m/s 766 mmHg 63%
    10:00 +17°C° 0 mm 4 m/s 765 mmHg 58%
    11:00 +17°C° 0 mm 4 m/s 765 mmHg 57%
    12:00 +18°C° 0 mm 4 m/s 765 mmHg 57%
    13:00 +18°C° 0 mm 4 m/s 764 mmHg 57%
    14:00 +17°C° 0 mm 4 m/s 764 mmHg 61%
    15:00 +15°C° 0 mm 4 m/s 764 mmHg 65%
    16:00 +15°C° 0 mm 4 m/s 764 mmHg 70%
    17:00 +14°C° 0 mm 5 m/s 764 mmHg 72%
    18:00 +13°C° 0 mm 5 m/s 764 mmHg 74%
    19:00 +13°C° 0 mm 5 m/s 764 mmHg 76%
    20:00 +11°C° 0 mm 6 m/s 764 mmHg 77%
    21:00 +11°C° 0 mm 6 m/s 764 mmHg 77%
    22:00 +11°C° 0 mm 6 m/s 763 mmHg 78%
    23:00 +11°C° 0 mm 6 m/s 763 mmHg 78%

    25 Novembre, Dimanche

    Heure Température Précipitation Vent Pression Humidité
    00:00 +11°C° 0 mm 6 m/s 763 mmHg 78%
    01:00 +11°C° 0 mm 6 m/s 763 mmHg 78%
    02:00 +11°C° 0.1 mm 6 m/s 762 mmHg 78%
    03:00 +11°C° 0.1 mm 6 m/s 762 mmHg 78%
    04:00 +11°C° 0.1 mm 6 m/s 762 mmHg 79%
    05:00 +11°C° 0.1 mm 6 m/s 761 mmHg 80%
    06:00 +11°C° 0.1 mm 6 m/s 761 mmHg 81%
    07:00 +13°C° 0.1 mm 6 m/s 761 mmHg 82%
    08:00 +14°C° 0.2 mm 6 m/s 761 mmHg 79%
    09:00 +16°C° 0.2 mm 6 m/s 761 mmHg 75%
    10:00 +17°C° 0.2 mm 6 m/s 761 mmHg 72%
    11:00 +19°C° 0.2 mm 6 m/s 760 mmHg 70%
    12:00 +19°C° 0.2 mm 6 m/s 760 mmHg 69%
    13:00 +20°C° 0.2 mm 6 m/s 760 mmHg 67%
    14:00 +19°C° 0.6 mm 6 m/s 759 mmHg 73%
    15:00 +17°C° 0.6 mm 5 m/s 759 mmHg 79%
    16:00 +16°C° 0.6 mm 5 m/s 759 mmHg 85%
    17:00 +15°C° 1 mm 4 m/s 759 mmHg 86%
    18:00 +15°C° 1 mm 4 m/s 759 mmHg 88%
    19:00 +15°C° 1 mm 4 m/s 759 mmHg 89%
    20:00 +15°C° 0.7 mm 4 m/s 758 mmHg 89%
    21:00 +15°C° 0.7 mm 4 m/s 758 mmHg 89%
    22:00 +14°C° 0.7 mm 4 m/s 758 mmHg 90%
    23:00 +14°C° 0.3 mm 4 m/s 758 mmHg 90%
    Voir plus